GW0092 Weather Reports


Display with metric or nautical units.
time (UTC)temp
F
wind
direction
speed
MPH
gust
MPH
rain 1hr
in
rain 24hr
in
rain mn
in
humidity
%
barometer
mb
20260905231602 74 0 0.0 0.0 0.00 0.00 0.00 82 1011.1
20260905230100 76 298 0.0 1.0 0.00 0.00 0.00 77 1011.1
20260905224610 77 354 1.0 3.0 0.00 0.00 0.00 74 1010.9
20260905223102 77 295 1.0 4.0 0.00 0.00 0.00 75 1010.8
20260905221603 77 338 1.0 3.0 0.00 0.00 0.00 75 1010.7
20260905220056 78 351 1.0 3.0 0.00 0.00 0.00 74 1010.6
20260905214611 78 311 0.0 5.0 0.00 0.00 0.00 76 1010.4
20260905213111 79 340 3.0 6.0 0.00 0.00 0.00 74 1010.3
20260905211603 81 330 3.0 6.0 0.00 0.00 0.00 71 1010.1
20260905210101 82 295 0.0 2.0 0.00 0.00 0.00 75 1009.9
20260905204559 81 220 2.0 4.0 0.00 0.00 0.00 75 1009.6
20260905203105 81 0 0.0 3.0 0.00 0.00 0.00 76 1009.4
20260905201607 83 25 1.0 3.0 0.00 0.00 0.00 73 1009.4
20260905194603 80 5 0.0 1.0 0.00 0.00 0.00 79 1010.0
20260905193101 81 0 0.0 3.0 0.00 0.00 0.00 76 1010.4
20260905191613 81 0 0.0 4.0 0.00 0.00 0.00 71 1010.6
20260905184610 81 290 2.0 5.0 0.00 0.00 0.00 76 1011.0
20260905183103 80 344 3.0 5.0 0.00 0.00 0.00 71 1011.0
20260905181606 81 303 2.0 7.0 0.00 0.00 0.00 73 1011.0
20260905174617 82 300 0.0 7.0 0.00 0.00 0.00 69 1011.1
20260905173112 81 322 4.0 10.0 0.00 0.00 0.00 69 1011.1
20260905171602 82 327 4.0 7.0 0.00 0.00 0.00 70 1010.9
20260905170059 81 314 0.0 5.0 0.00 0.00 0.00 72 1011.0
20260905164605 81 303 2.0 7.0 0.00 0.00 0.00 74 1011.1
20260905163107 81 337 2.0 7.0 0.00 0.00 0.00 71 1011.2
20260905161600 81 10 3.0 7.0 0.00 0.00 0.00 71 1011.4
20260905160110 82 322 2.0 5.0 0.00 0.00 0.00 67 1011.6
20260905154605 81 347 1.0 6.0 0.00 0.00 0.00 71 1011.8
20260905153102 81 31 1.0 7.0 0.00 0.00 0.00 66 1011.8
20260905151558 80 340 4.0 8.0 0.00 0.00 0.00 69 1011.7
20260905150105 80 309 2.0 7.0 0.00 0.00 0.00 68 1011.8
20260905144601 80 293 4.0 8.0 0.00 0.00 0.00 70 1011.8
20260905143100 80 314 2.0 5.0 0.00 0.00 0.00 76 1011.6
20260905141612 79 327 1.0 7.0 0.00 0.00 0.00 78 1011.5
20260905140107 78 300 2.0 8.0 0.00 0.00 0.00 78 1011.4
20260905134610 78 256 1.0 6.0 0.00 0.00 0.00 82 1011.2
20260905133100 77 331 2.0 6.0 0.00 0.00 0.00 89 1011.0
20260905131559 76 300 1.0 5.0 0.00 0.00 0.00 95 1010.8
20260905130113 76 1 1.0 5.0 0.00 0.00 0.00 96 1011.0
20260905124601 75 295 2.0 6.0 0.00 0.00 0.00 97 1010.9
20260905123109 75 324 2.0 4.0 0.00 0.00 0.00 98 1011.0
20260905121602 74 340 1.0 3.0 0.00 0.00 0.00 99 1010.8
20260905120112 74 0 0.0 0.0 0.00 0.00 0.00 99 1010.7
20260905114637 73 0 0.0 0.0 0.00 0.00 0.00 100 1010.7
20260905113102 73 0 0.0 0.0 0.00 0.00 0.00 100 1010.6
20260905111601 72 0 0.0 0.0 0.00 0.00 0.00 100 1010.7
20260905110059 72 310 0.0 1.0 0.00 0.00 0.00 100 1010.3
20260905104605 72 0 0.0 1.0 0.00 0.01 0.00 99 1009.9
20260905103101 72 333 0.0 3.0 0.00 0.01 0.00 99 1009.8
20260905101600 72 0 0.0 1.0 0.00 0.01 0.00 99 1009.7
20260905100113 72 0 0.0 0.0 0.00 0.01 0.00 99 1009.6
20260905094624 72 0 0.0 0.0 0.00 0.01 0.00 99 1009.6
20260905093102 72 0 0.0 0.0 0.00 0.01 0.00 99 1009.6
20260905091615 72 0 0.0 1.0 0.00 0.01 0.00 99 1009.6
20260905090057 72 0 0.0 0.0 0.00 0.01 0.00 98 1009.8
20260905084603 73 0 0.0 1.0 0.00 0.03 0.00 98 1009.9
20260905083102 73 0 0.0 1.0 0.00 0.03 0.00 98 1009.8
20260905081558 73 342 0.0 2.0 0.00 0.03 0.00 98 1009.8
20260905080101 73 333 0.0 2.0 0.00 0.03 0.00 98 1010.0
20260905074605 74 353 0.0 3.0 0.00 0.12 0.00 97 1009.9
20260905073105 74 28 1.0 4.0 0.00 0.12 0.00 97 1009.9
20260905071602 74 283 0.0 2.0 0.00 0.12 0.00 97 1010.1
20260905070104 74 328 0.0 1.0 0.00 0.12 0.00 97 1010.3
20260905064616 74 0 0.0 2.0 0.00 0.39 0.00 97 1010.2
20260905063059 74 0 0.0 3.0 0.00 0.39 0.00 97 1010.4
20260905061619 74 307 0.0 2.0 0.00 0.39 0.00 97 1010.5
20260905060104 75 0 0.0 0.0 0.00 0.39 0.00 96 1010.2
20260905054604 75 0 0.0 1.0 0.00 0.39 0.00 96 1010.3
20260905053102 76 335 0.0 2.0 0.00 0.39 0.00 95 1010.7
20260905051611 76 0 0.0 2.0 0.00 0.39 0.00 95 1010.9
20260905050107 76 319 1.0 3.0 0.00 0.39 0.00 95 1011.2
20260905044603 76 322 1.0 3.0 0.00 0.39 0.00 95 1011.1
20260905043055 77 352 1.0 4.0 0.00 0.39 0.00 96 1011.1
20260905041604 76 0 0.0 0.0 0.00 0.39 0.00 96 1011.4
20260905040103 76 0 0.0 0.0 0.00 0.39 0.00 97 1011.5
20260905034609 76 0 0.0 0.0 0.00 0.39 0.39 97 1011.6
20260905033111 75 0 0.0 0.0 0.00 0.39 0.39 97 1011.8
20260905031616 75 0 0.0 0.0 0.00 0.39 0.39 97 1011.9
20260905030110 75 0 0.0 0.0 0.00 0.39 0.39 97 1011.9
20260905024602 75 0 0.0 0.0 0.00 0.39 0.39 97 1011.8
20260905023127 75 0 0.0 0.0 0.00 0.39 0.39 96 1011.6
20260905021602 75 0 0.0 0.0 0.00 0.39 0.39 96 1011.9
20260905020106 76 0 0.0 0.0 0.00 0.39 0.39 96 1012.1
20260905014616 75 0 0.0 0.0 0.00 0.39 0.39 96 1012.1
20260905013057 76 0 0.0 0.0 0.00 0.39 0.39 96 1012.1
20260905011607 76 0 0.0 0.0 0.00 0.39 0.39 95 1012.1
20260905010107 76 0 0.0 0.0 0.00 0.39 0.39 95 1012.2
20260905004601 76 0 0.0 0.0 0.00 0.39 0.39 94 1012.2
20260905003058 76 0 0.0 0.0 0.00 0.39 0.39 94 1012.0
20260905001558 77 0 0.0 0.0 0.00 0.39 0.39 93 1012.0
20260905000119 77 0 0.0 0.0 0.00 0.39 0.39 92 1011.6
20260904234601 77 0 0.0 0.0 0.00 0.39 0.39 91 1011.3
20260904233100 78 0 0.0 0.0 0.00 0.39 0.39 90 1011.4